Tracking 35331 objects as of 14-Sep-2026
HD Live streaming from Space Station
objects crossing your sky now

COSMOS 1347


COSMOS 1347 is no longer on orbit


NORAD ID: 13122
Int'l Code: 1982-028A
Launch date: April 2, 1982
Source: Commonwealth of Independent States (former USSR) (CIS)
Launch site: TYURATAM MISSILE AND SPACE COMPLEX (TTMTR)
Decay date: 1982-05-21
Your satellite tracking list
Your tracking list is empty




NASA's NSSDC Master Catalog

Two Line Element Set (TLE):
1 13122U 82028  A 82141.89789185  .01231580 +19157-4 +22670-3 0  9997
2 13122 070.3071 242.6116 0104206 092.8263 268.6382 16.17832264007950
Source of the keplerian elements: AFSPC